Hourly Weather Godziszewo

Today, 18 January, Monday

Time Temperature Precipitation Wind Pressure Humidity
00:00 -16°C° 0 mm 2 mps 759 mmHg 89%
01:00 -16°C° 0 mm 2 mps 759 mmHg 89%
02:00 -16°C° 0 mm 2 mps 759 mmHg 89%
03:00 -16°C° 0 mm 2 mps 759 mmHg 89%
04:00 -16°C° 0 mm 2 mps 758 mmHg 89%
05:00 -15°C° 0 mm 2 mps 758 mmHg 89%
06:00 -15°C° 0 mm 2 mps 758 mmHg 88%
07:00 -15°C° 0 mm 2 mps 758 mmHg 87%
08:00 -14°C° 0 mm 2 mps 758 mmHg 86%
09:00 -14°C° 0 mm 2 mps 758 mmHg 86%
10:00 -13°C° 0 mm 2 mps 758 mmHg 85%
11:00 -13°C° 0 mm 3 mps 758 mmHg 85%
12:00 -12°C° 0 mm 3 mps 758 mmHg 85%
13:00 -10°C° 0 mm 3 mps 757 mmHg 84%
14:00 -12°C° 0 mm 3 mps 757 mmHg 86%
15:00 -13°C° 0 mm 3 mps 757 mmHg 88%
16:00 -14°C° 0 mm 3 mps 756 mmHg 90%
17:00 -14°C° 0 mm 3 mps 756 mmHg 90%
18:00 -14°C° 0 mm 3 mps 756 mmHg 89%
19:00 -15°C° 0 mm 4 mps 755 mmHg 89%
20:00 -14°C° 0 mm 4 mps 755 mmHg 90%
21:00 -14°C° 0 mm 4 mps 755 mmHg 91%
22:00 -14°C° 0 mm 5 mps 754 mmHg 92%
23:00 -13°C° 0.4 mm 5 mps 754 mmHg 93%

Tomorrow, 19 January, Tuesday

Time Temperature Precipitation Wind Pressure Humidity
00:00 -12°C° 0.4 mm 5 mps 753 mmHg 94%
01:00 -12°C° 0.4 mm 5 mps 753 mmHg 94%
02:00 -11°C° 0.5 mm 5 mps 752 mmHg 95%
03:00 -10°C° 0.5 mm 5 mps 751 mmHg 95%
04:00 -8°C° 0.5 mm 5 mps 750 mmHg 95%
05:00 -7°C° 0.3 mm 4 mps 750 mmHg 96%
06:00 -4°C° 0.3 mm 4 mps 750 mmHg 96%
07:00 -2°C° 0.3 mm 3 mps 750 mmHg 97%
08:00 -1°C° 0.1 mm 3 mps 749 mmHg 98%
09:00 0°C° 0.1 mm 3 mps 749 mmHg 98%
10:00 0°C° 0.1 mm 3 mps 749 mmHg 99%
11:00 0°C° 0 mm 3 mps 749 mmHg 99%
12:00 0°C° 0 mm 3 mps 749 mmHg 99%
13:00 0°C° 0 mm 3 mps 748 mmHg 99%
14:00 -1°C° 0 mm 4 mps 748 mmHg 98%
15:00 -1°C° 0 mm 4 mps 747 mmHg 98%
16:00 -1°C° 0 mm 4 mps 747 mmHg 97%
17:00 -1°C° 0.3 mm 4 mps 747 mmHg 97%
18:00 -2°C° 0.3 mm 4 mps 746 mmHg 97%
19:00 -2°C° 0.3 mm 5 mps 746 mmHg 97%
20:00 -2°C° 0.1 mm 5 mps 746 mmHg 97%
21:00 -2°C° 0.1 mm 5 mps 745 mmHg 97%
22:00 -2°C° 0.1 mm 5 mps 745 mmHg 96%
23:00 -2°C° 0.1 mm 5 mps 744 mmHg 97%

Day after tomorrow, 20 January, Wednesday

Time Temperature Precipitation Wind Pressure Humidity
00:00 -1°C° 0.1 mm 5 mps 744 mmHg 97%
01:00 -1°C° 0.1 mm 5 mps 743 mmHg 98%
02:00 -1°C° 0.2 mm 5 mps 743 mmHg 98%
03:00 -1°C° 0.2 mm 4 mps 743 mmHg 98%
04:00 -1°C° 0.2 mm 4 mps 742 mmHg 99%
05:00 0°C° 0.5 mm 5 mps 742 mmHg 99%
06:00 0°C° 0.5 mm 5 mps 742 mmHg 99%
07:00 +1°C° 0.5 mm 5 mps 742 mmHg 99%
08:00 +1°C° 0.3 mm 5 mps 742 mmHg 99%
09:00 +1°C° 0.3 mm 5 mps 742 mmHg 99%
10:00 +1°C° 0.3 mm 6 mps 742 mmHg 99%
11:00 +1°C° 0.3 mm 6 mps 742 mmHg 99%
12:00 -1°C° 0.3 mm 6 mps 742 mmHg 99%
13:00 -1°C° 0.3 mm 6 mps 742 mmHg 98%
14:00 -1°C° 0.4 mm 6 mps 742 mmHg 97%
15:00 -1°C° 0.4 mm 6 mps 742 mmHg 96%
16:00 -1°C° 0.4 mm 6 mps 742 mmHg 95%
17:00 -1°C° 0.2 mm 6 mps 743 mmHg 95%
18:00 -1°C° 0.2 mm 6 mps 743 mmHg 96%
19:00 -1°C° 0.2 mm 6 mps 743 mmHg 96%
20:00 -1°C° 0.1 mm 6 mps 743 mmHg 95%
21:00 -1°C° 0.1 mm 6 mps 743 mmHg 95%
22:00 -1°C° 0.1 mm 6 mps 743 mmHg 94%
23:00 0°C° 0 mm 5 mps 743 mmHg 93%

21 January, Thursday

Time Temperature Precipitation Wind Pressure Humidity
00:00 0°C° 0 mm 5 mps 743 mmHg 92%
01:00 0°C° 0 mm 5 mps 743 mmHg 92%
02:00 0°C° 0 mm 5 mps 743 mmHg 91%
03:00 0°C° 0 mm 5 mps 743 mmHg 89%
04:00 -1°C° 0 mm 5 mps 743 mmHg 88%
05:00 -1°C° 0 mm 5 mps 743 mmHg 88%
06:00 -1°C° 0 mm 5 mps 743 mmHg 87%
07:00 -1°C° 0 mm 5 mps 743 mmHg 87%
08:00 0°C° 0 mm 5 mps 743 mmHg 87%
09:00 0°C° 0 mm 5 mps 743 mmHg 86%
10:00 0°C° 0 mm 5 mps 743 mmHg 86%
11:00 0°C° 0 mm 5 mps 743 mmHg 86%
12:00 +1°C° 0 mm 5 mps 743 mmHg 86%
13:00 +1°C° 0 mm 5 mps 744 mmHg 86%
14:00 +1°C° 0 mm 5 mps 743 mmHg 86%
15:00 0°C° 0 mm 5 mps 743 mmHg 86%
16:00 0°C° 0 mm 5 mps 743 mmHg 85%
17:00 0°C° 0 mm 5 mps 742 mmHg 86%
18:00 0°C° 0 mm 5 mps 742 mmHg 86%
19:00 0°C° 0 mm 5 mps 742 mmHg 87%
20:00 -1°C° 0 mm 5 mps 742 mmHg 87%
21:00 -1°C° 0 mm 5 mps 742 mmHg 88%
22:00 -1°C° 0 mm 5 mps 742 mmHg 89%
23:00 -1°C° 0 mm 5 mps 741 mmHg 90%

22 January, Friday

Time Temperature Precipitation Wind Pressure Humidity
00:00 -1°C° 0 mm 4 mps 741 mmHg 91%
01:00 -1°C° 0 mm 4 mps 741 mmHg 92%
02:00 -1°C° 0 mm 4 mps 741 mmHg 92%
03:00 -1°C° 0 mm 4 mps 740 mmHg 92%
04:00 -1°C° 0 mm 4 mps 740 mmHg 92%
05:00 -1°C° 0 mm 4 mps 740 mmHg 92%
06:00 -2°C° 0 mm 4 mps 740 mmHg 92%
07:00 -2°C° 0 mm 4 mps 740 mmHg 93%
08:00 -1°C° 0 mm 4 mps 740 mmHg 92%
09:00 -1°C° 0 mm 5 mps 740 mmHg 91%
10:00 0°C° 0 mm 5 mps 740 mmHg 90%
11:00 0°C° 0 mm 5 mps 739 mmHg 91%
12:00 0°C° 0 mm 4 mps 739 mmHg 91%
13:00 +1°C° 0 mm 4 mps 739 mmHg 92%
14:00 0°C° 0 mm 4 mps 739 mmHg 94%
15:00 0°C° 0 mm 4 mps 738 mmHg 96%
16:00 0°C° 0 mm 4 mps 738 mmHg 97%
17:00 +1°C° 0 mm 3 mps 738 mmHg 97%
18:00 0°C° 0 mm 3 mps 738 mmHg 97%
19:00 0°C° 0 mm 3 mps 738 mmHg 96%
20:00 0°C° 0 mm 3 mps 738 mmHg 96%
21:00 +1°C° 0 mm 2 mps 738 mmHg 95%
22:00 +1°C° 0 mm 2 mps 739 mmHg 94%
23:00 +1°C° 0 mm 2 mps 739 mmHg 94%

23 January, Saturday

Time Temperature Precipitation Wind Pressure Humidity
00:00 +1°C° 0 mm 2 mps 739 mmHg 93%
01:00 +1°C° 0 mm 2 mps 739 mmHg 92%
02:00 +1°C° 0 mm 2 mps 739 mmHg 92%
03:00 +1°C° 0 mm 2 mps 739 mmHg 91%
04:00 +1°C° 0 mm 2 mps 740 mmHg 90%
05:00 +1°C° 0 mm 2 mps 740 mmHg 90%
06:00 +1°C° 0 mm 2 mps 740 mmHg 90%
07:00 +1°C° 0 mm 2 mps 740 mmHg 90%
08:00 +1°C° 0 mm 2 mps 741 mmHg 89%
09:00 +1°C° 0 mm 2 mps 741 mmHg 88%
10:00 +2°C° 0 mm 2 mps 742 mmHg 87%
11:00 +2°C° 0 mm 2 mps 742 mmHg 88%
12:00 +2°C° 0 mm 2 mps 742 mmHg 88%
13:00 +3°C° 0 mm 2 mps 742 mmHg 88%
14:00 +2°C° 0 mm 2 mps 743 mmHg 88%
15:00 +1°C° 0 mm 2 mps 743 mmHg 88%
16:00 +2°C° 0 mm 1 mps 743 mmHg 88%
17:00 +2°C° 0 mm 1 mps 743 mmHg 88%
18:00 +1°C° 0 mm 1 mps 744 mmHg 88%
19:00 +1°C° 0 mm 1 mps 744 mmHg 88%
20:00 +1°C° 0 mm 1 mps 744 mmHg 88%
21:00 -1°C° 0 mm 2 mps 744 mmHg 88%
22:00 -1°C° 0 mm 2 mps 745 mmHg 89%
23:00 -1°C° 0 mm 2 mps 745 mmHg 89%
Show more